TimeCST,TemperatureF,Dew PointF,Humidity,Sea Level PressureIn,VisibilityMPH,Wind Direction,Wind SpeedMPH,Gust SpeedMPH,PrecipitationIn,Events,Conditions,WindDirDegrees,DateUTC
12:46 AM,7.0,3.9,87,30.10,5.0,Calm,Calm,-,N/A,,Scattered Clouds,0,2014-02-09 06:46:00
12:53 AM,7.0,3.9,87,30.16,5.0,Calm,Calm,-,N/A,,Partly Cloudy,0,2014-02-09 06:53:00
1:53 AM,5.0,1.9,87,30.17,6.0,Calm,Calm,-,N/A,,Clear,0,2014-02-09 07:53:00
2:53 AM,5.0,1.0,84,30.16,6.0,NW,3.5,-,N/A,,Clear,310,2014-02-09 08:53:00
3:53 AM,1.0,-2.9,83,30.17,4.0,Calm,Calm,-,N/A,,Clear,0,2014-02-09 09:53:00
4:53 AM,-2.0,-4.0,91,30.17,5.0,Calm,Calm,-,N/A,,Clear,0,2014-02-09 10:53:00
5:53 AM,-0.9,-4.0,87,30.18,7.0,NW,3.5,-,N/A,,Scattered Clouds,310,2014-02-09 11:53:00
6:53 AM,1.0,-2.9,83,30.19,5.0,Calm,Calm,-,0.00,Snow,Light Snow,0,2014-02-09 12:53:00
7:48 AM,3.2,-0.4,85,30.12,4.0,WNW,3.5,-,0.00,,Light Freezing Drizzle,300,2014-02-09 13:48:00
7:53 AM,3.0,-0.0,87,30.19,5.0,Calm,Calm,-,0.00,,Light Freezing Drizzle,0,2014-02-09 13:53:00
8:29 AM,6.1,3.0,87,30.13,6.0,WNW,4.6,-,0.00,Snow,Light Snow,300,2014-02-09 14:29:00
8:53 AM,7.0,3.0,84,30.21,6.0,WNW,5.8,-,0.00,Snow,Light Snow,300,2014-02-09 14:53:00
9:53 AM,10.0,5.0,80,30.20,6.0,Variable,6.9,-,0.00,,Haze,0,2014-02-09 15:53:00
10:53 AM,12.9,5.0,71,30.20,9.0,WNW,6.9,-,N/A,,Partly Cloudy,290,2014-02-09 16:53:00
11:53 AM,15.1,5.0,64,30.19,10.0,West,8.1,-,N/A,,Partly Cloudy,270,2014-02-09 17:53:00
12:40 PM,16.0,3.9,59,30.13,10.0,NW,12.7,-,N/A,,Mostly Cloudy,310,2014-02-09 18:40:00
12:53 PM,17.1,3.9,56,30.18,10.0,West,10.4,16.1,N/A,,Mostly Cloudy,280,2014-02-09 18:53:00
1:53 PM,17.1,3.0,54,30.18,10.0,WNW,8.1,-,N/A,,Mostly Cloudy,300,2014-02-09 19:53:00
2:07 PM,17.1,3.0,54,30.12,10.0,WNW,9.2,-,N/A,,Mostly Cloudy,300,2014-02-09 20:07:00
2:53 PM,18.0,3.0,52,30.20,10.0,WNW,12.7,17.3,N/A,,Mostly Cloudy,290,2014-02-09 20:53:00
3:53 PM,16.0,1.9,54,30.21,10.0,WNW,10.4,-,N/A,,Partly Cloudy,300,2014-02-09 21:53:00
4:53 PM,14.0,1.0,56,30.23,10.0,NW,6.9,-,N/A,,Partly Cloudy,320,2014-02-09 22:53:00
5:53 PM,10.9,-0.0,61,30.25,10.0,NW,6.9,-,N/A,,Clear,320,2014-02-09 23:53:00
6:53 PM,9.0,-0.9,64,30.27,10.0,NW,5.8,-,N/A,,Clear,310,2014-02-10 00:53:00
7:53 PM,8.1,-5.1,55,30.30,10.0,NW,10.4,-,N/A,,Clear,310,2014-02-10 01:53:00
8:53 PM,5.0,-7.1,58,30.32,10.0,NW,6.9,-,N/A,,Clear,320,2014-02-10 02:53:00
9:53 PM,3.0,-9.0,57,30.34,10.0,NW,5.8,-,N/A,,Clear,310,2014-02-10 03:53:00
10:53 PM,1.9,-9.9,58,30.35,10.0,NW,6.9,-,N/A,,Clear,310,2014-02-10 04:53:00
11:53 PM,-0.0,-9.9,63,30.36,10.0,WNW,3.5,-,N/A,,Clear,300,2014-02-10 05:53:00